TimeMST,TemperatureF,Dew PointF,Humidity,Sea Level PressureIn,VisibilityMPH,Wind Direction,Wind SpeedMPH,Gust SpeedMPH,PrecipitationIn,Events,Conditions,WindDirDegrees,DateUTC
12:53 AM,-6.0,-11.0,79,30.48,-9999.0,South,5.8,-,N/A,,Overcast,180,2013-01-14 07:53:00
1:53 AM,-7.1,-13.0,75,30.48,-9999.0,SSW,8.1,-,N/A,,Overcast,200,2013-01-14 08:53:00
2:53 AM,-6.0,-13.0,72,30.51,-9999.0,SSW,11.5,-,N/A,,Scattered Clouds,200,2013-01-14 09:53:00
3:53 AM,-8.0,-14.1,75,30.51,-9999.0,South,4.6,-,N/A,,Clear,190,2013-01-14 10:53:00
4:53 AM,-9.0,-16.1,71,30.50,-9999.0,South,6.9,-,N/A,,Clear,180,2013-01-14 11:53:00
5:53 AM,-11.9,-18.0,74,30.52,-9999.0,SSW,9.2,-,N/A,,Clear,210,2013-01-14 12:53:00
6:53 AM,-9.0,-16.1,71,30.52,-9999.0,SSW,8.1,-,N/A,,Clear,200,2013-01-14 13:53:00
7:53 AM,-11.0,-18.0,71,30.55,-9999.0,Calm,Calm,-,N/A,,Clear,0,2013-01-14 14:53:00
8:53 AM,-8.0,-13.0,79,30.52,-9999.0,West,4.6,-,N/A,,Partly Cloudy,270,2013-01-14 15:53:00
9:53 AM,-4.0,-11.0,72,30.54,-9999.0,Calm,Calm,-,N/A,,Mostly Cloudy,0,2013-01-14 16:53:00
10:53 AM,-2.0,-9.0,72,30.52,-9999.0,NE,3.5,-,N/A,,Mostly Cloudy,40,2013-01-14 17:53:00
11:53 AM,1.9,-6.0,69,30.47,-9999.0,SSW,6.9,-,N/A,,Overcast,210,2013-01-14 18:53:00
12:53 PM,3.9,-4.0,70,30.41,-9999.0,WSW,9.2,-,N/A,,Overcast,250,2013-01-14 19:53:00
1:53 PM,5.0,-0.9,76,30.39,-9999.0,NW,3.5,-,N/A,,Overcast,320,2013-01-14 20:53:00
2:13 PM,6.8,-0.4,72,30.05,-9999.0,Calm,Calm,-,N/A,,Overcast,0,2013-01-14 21:13:00
2:22 PM,8.6,1.4,73,30.05,-9999.0,WSW,10.4,-,N/A,,Overcast,250,2013-01-14 21:22:00
2:53 PM,5.0,-0.9,76,30.41,-9999.0,NW,5.8,-,N/A,,Overcast,320,2013-01-14 21:53:00
3:53 PM,5.0,-0.9,76,30.43,-9999.0,NW,3.5,-,N/A,,Overcast,320,2013-01-14 22:53:00
4:53 PM,5.0,-0.9,76,30.43,-9999.0,Calm,Calm,-,N/A,,Overcast,0,2013-01-14 23:53:00
5:53 PM,5.0,-0.0,80,30.46,-9999.0,Calm,Calm,-,0.00,Snow,Light Snow,0,2013-01-15 00:53:00
6:53 PM,5.0,-0.9,76,30.43,-9999.0,Calm,Calm,-,0.00,,Overcast,0,2013-01-15 01:53:00
7:53 PM,9.0,1.9,73,30.44,-9999.0,Variable,4.6,-,N/A,,Overcast,0,2013-01-15 02:53:00
8:53 PM,7.0,1.0,77,30.45,-9999.0,Calm,Calm,-,N/A,,Overcast,0,2013-01-15 03:53:00
9:53 PM,7.0,1.0,77,30.45,-9999.0,Calm,Calm,-,N/A,,Overcast,0,2013-01-15 04:53:00
10:53 PM,8.1,1.9,76,30.44,-9999.0,Calm,Calm,-,N/A,,Overcast,0,2013-01-15 05:53:00
11:53 PM,9.0,1.0,70,30.44,-9999.0,Calm,Calm,-,N/A,,Overcast,0,2013-01-15 06:53:00